owner,sensor,date,latitude,longitude,vertical_datum,sea_water_temperature,qcFlag 
COMPS,ioos:station:USF.COMPS:C10:1,2011-08-05T18:40:00Z,27.1690,-82.9260,-1.0,30.76,2 
COMPS,ioos:station:USF.COMPS:C10:1,2011-08-05T19:00:00Z,27.1690,-82.9260,-1.0,30.77,2 
COMPS,ioos:station:USF.COMPS:C10:1,2011-08-05T19:40:00Z,27.1690,-82.9260,-1.0,30.78,2 
COMPS,ioos:station:USF.COMPS:C10:1,2011-08-05T20:00:00Z,27.1690,-82.9260,-1.0,30.8,2 
COMPS,ioos:station:USF.COMPS:C10:1,2011-08-05T20:20:00Z,27.1690,-82.9260,-1.0,30.82,2 
COMPS,ioos:station:USF.COMPS:C10:1,2011-08-05T20:40:00Z,27.1690,-82.9260,-1.0,30.8,2 
COMPS,ioos:station:USF.COMPS:C10:1,2011-08-05T21:00:00Z,27.1690,-82.9260,-1.0,30.82,2 
COMPS,ioos:station:USF.COMPS:C10:1,2011-08-05T21:20:00Z,27.1690,-82.9260,-1.0,30.82,2 
COMPS,ioos:station:USF.COMPS:C10:1,2011-08-05T21:40:00Z,27.1690,-82.9260,-1.0,30.8,2 
COMPS,ioos:station:USF.COMPS:C10:1,2011-08-05T22:00:00Z,27.1690,-82.9260,-1.0,30.82,2 
COMPS,ioos:station:USF.COMPS:C10:1,2011-08-05T22:20:00Z,27.1690,-82.9260,-1.0,30.84,2 
COMPS,ioos:station:USF.COMPS:C10:1,2011-08-05T22:40:00Z,27.1690,-82.9260,-1.0,30.85,2 
COMPS,ioos:station:USF.COMPS:C10:1,2011-08-05T23:00:00Z,27.1690,-82.9260,-1.0,30.83,2 
COMPS,ioos:station:USF.COMPS:C10:1,2011-08-05T23:20:00Z,27.1690,-82.9260,-1.0,30.8,2 
COMPS,ioos:station:USF.COMPS:C10:1,2011-08-05T23:40:00Z,27.1690,-82.9260,-1.0,30.82,2 
COMPS,ioos:station:USF.COMPS:C10:1,2011-08-06T00:00:00Z,27.1690,-82.9260,-1.0,30.85,2 
COMPS,ioos:station:USF.COMPS:C10:1,2011-08-06T00:20:00Z,27.1690,-82.9260,-1.0,30.8,2 
COMPS,ioos:station:USF.COMPS:C10:1,2011-08-06T00:40:00Z,27.1690,-82.9260,-1.0,30.8,2 
COMPS,ioos:station:USF.COMPS:C10:1,2011-08-06T01:00:00Z,27.1690,-82.9260,-1.0,30.8,2 
COMPS,ioos:station:USF.COMPS:C10:1,2011-08-06T01:20:00Z,27.1690,-82.9260,-1.0,30.77,2 
COMPS,ioos:station:USF.COMPS:C10:1,2011-08-06T01:40:00Z,27.1690,-82.9260,-1.0,30.79,2 
COMPS,ioos:station:USF.COMPS:C10:1,2011-08-06T02:00:00Z,27.1690,-82.9260,-1.0,30.78,2 
COMPS,ioos:station:USF.COMPS:C10:1,2011-08-06T02:20:00Z,27.1690,-82.9260,-1.0,30.78,2 
COMPS,ioos:station:USF.COMPS:C10:1,2011-08-06T02:40:00Z,27.1690,-82.9260,-1.0,30.79,2 
COMPS,ioos:station:USF.COMPS:C10:1,2011-08-06T03:00:00Z,27.1690,-82.9260,-1.0,30.86,2 
COMPS,ioos:station:USF.COMPS:C10:1,2011-08-06T03:20:00Z,27.1690,-82.9260,-1.0,30.85,2 
COMPS,ioos:station:USF.COMPS:C10:1,2011-08-06T03:40:00Z,27.1690,-82.9260,-1.0,30.86,2 
COMPS,ioos:station:USF.COMPS:C10:1,2011-08-06T04:00:00Z,27.1690,-82.9260,-1.0,30.83,2 
COMPS,ioos:station:USF.COMPS:C10:1,2011-08-06T04:20:00Z,27.1690,-82.9260,-1.0,30.83,2 
COMPS,ioos:station:USF.COMPS:C10:1,2011-08-06T04:40:00Z,27.1690,-82.9260,-1.0,30.83,2 
COMPS,ioos:station:USF.COMPS:C10:1,2011-08-06T05:00:00Z,27.1690,-82.9260,-1.0,30.83,2 
COMPS,ioos:station:USF.COMPS:C10:1,2011-08-06T05:20:00Z,27.1690,-82.9260,-1.0,30.83,2 
COMPS,ioos:station:USF.COMPS:C10:1,2011-08-06T05:40:00Z,27.1690,-82.9260,-1.0,30.8,2 
COMPS,ioos:station:USF.COMPS:C10:1,2011-08-06T06:00:00Z,27.1690,-82.9260,-1.0,30.81,2 
COMPS,ioos:station:USF.COMPS:C10:1,2011-08-06T06:20:00Z,27.1690,-82.9260,-1.0,30.8,2 
COMPS,ioos:station:USF.COMPS:C10:1,2011-08-06T06:40:00Z,27.1690,-82.9260,-1.0,30.79,2 
COMPS,ioos:station:USF.COMPS:C10:1,2011-08-06T07:00:00Z,27.1690,-82.9260,-1.0,30.78,2 
COMPS,ioos:station:USF.COMPS:C10:1,2011-08-06T07:20:00Z,27.1690,-82.9260,-1.0,30.76,2 
COMPS,ioos:station:USF.COMPS:C10:1,2011-08-06T07:40:00Z,27.1690,-82.9260,-1.0,30.75,2 
COMPS,ioos:station:USF.COMPS:C10:1,2011-08-06T08:00:00Z,27.1690,-82.9260,-1.0,30.75,2 
COMPS,ioos:station:USF.COMPS:C10:1,2011-08-06T08:20:00Z,27.1690,-82.9260,-1.0,30.74,2 
COMPS,ioos:station:USF.COMPS:C10:1,2011-08-06T08:40:00Z,27.1690,-82.9260,-1.0,30.73,2 
COMPS,ioos:station:USF.COMPS:C10:1,2011-08-06T09:00:00Z,27.1690,-82.9260,-1.0,30.72,2 
COMPS,ioos:station:USF.COMPS:C10:1,2011-08-06T09:20:00Z,27.1690,-82.9260,-1.0,30.72,2 
COMPS,ioos:station:USF.COMPS:C10:1,2011-08-06T09:40:00Z,27.1690,-82.9260,-1.0,30.72,2 
COMPS,ioos:station:USF.COMPS:C10:1,2011-08-06T10:00:00Z,27.1690,-82.9260,-1.0,30.71,2 
COMPS,ioos:station:USF.COMPS:C10:1,2011-08-06T10:20:00Z,27.1690,-82.9260,-1.0,30.71,2 
COMPS,ioos:station:USF.COMPS:C10:1,2011-08-06T10:40:00Z,27.1690,-82.9260,-1.0,30.71,2 
COMPS,ioos:station:USF.COMPS:C10:1,2011-08-06T11:00:00Z,27.1690,-82.9260,-1.0,30.71,2 
COMPS,ioos:station:USF.COMPS:C10:1,2011-08-06T11:20:00Z,27.1690,-82.9260,-1.0,30.7,2 
COMPS,ioos:station:USF.COMPS:C10:1,2011-08-06T11:40:00Z,27.1690,-82.9260,-1.0,30.7,2 
COMPS,ioos:station:USF.COMPS:C10:1,2011-08-06T12:00:00Z,27.1690,-82.9260,-1.0,30.7,2 
COMPS,ioos:station:USF.COMPS:C10:1,2011-08-06T12:20:00Z,27.1690,-82.9260,-1.0,30.7,2 
COMPS,ioos:station:USF.COMPS:C10:1,2011-08-06T12:40:00Z,27.1690,-82.9260,-1.0,30.69,2 
COMPS,ioos:station:USF.COMPS:C10:1,2011-08-06T13:00:00Z,27.1690,-82.9260,-1.0,30.7,2 
COMPS,ioos:station:USF.COMPS:C10:1,2011-08-06T13:20:00Z,27.1690,-82.9260,-1.0,30.71,2 
COMPS,ioos:station:USF.COMPS:C10:1,2011-08-06T13:40:00Z,27.1690,-82.9260,-1.0,30.72,2 
COMPS,ioos:station:USF.COMPS:C10:1,2011-08-06T14:00:00Z,27.1690,-82.9260,-1.0,30.74,2 
COMPS,ioos:station:USF.COMPS:C10:1,2011-08-06T14:20:00Z,27.1690,-82.9260,-1.0,30.74,2 
COMPS,ioos:station:USF.COMPS:C10:1,2011-08-06T14:40:00Z,27.1690,-82.9260,-1.0,30.75,2 
COMPS,ioos:station:USF.COMPS:C10:1,2011-08-06T15:00:00Z,27.1690,-82.9260,-1.0,30.77,2 
COMPS,ioos:station:USF.COMPS:C10:1,2011-08-06T15:20:00Z,27.1690,-82.9260,-1.0,30.78,2 
COMPS,ioos:station:USF.COMPS:C10:1,2011-08-06T15:40:00Z,27.1690,-82.9260,-1.0,30.79,2 
COMPS,ioos:station:USF.COMPS:C10:1,2011-08-06T16:00:00Z,27.1690,-82.9260,-1.0,30.79,2 
COMPS,ioos:station:USF.COMPS:C10:1,2011-08-06T16:20:00Z,27.1690,-82.9260,-1.0,30.79,2 
COMPS,ioos:station:USF.COMPS:C10:1,2011-08-06T16:40:00Z,27.1690,-82.9260,-1.0,30.8,2 
COMPS,ioos:station:USF.COMPS:C10:1,2011-08-06T17:00:00Z,27.1690,-82.9260,-1.0,30.82,2 
COMPS,ioos:station:USF.COMPS:C10:1,2011-08-06T17:20:00Z,27.1690,-82.9260,-1.0,30.82,2 
COMPS,ioos:station:USF.COMPS:C10:1,2011-08-06T17:40:00Z,27.1690,-82.9260,-1.0,30.83,2 
COMPS,ioos:station:USF.COMPS:C10:1,2011-08-06T18:00:00Z,27.1690,-82.9260,-1.0,30.84,2 
COMPS,ioos:station:USF.COMPS:C10:1,2011-08-06T18:20:00Z,27.1690,-82.9260,-1.0,30.85,2 
COMPS,ioos:station:USF.COMPS:C10:1,2011-08-06T18:40:00Z,27.1690,-82.9260,-1.0,30.86,2 
COMPS,ioos:station:USF.COMPS:C10:1,2011-08-06T19:00:00Z,27.1690,-82.9260,-1.0,30.86,2 
COMPS,ioos:station:USF.COMPS:C10:1,2011-08-06T19:20:00Z,27.1690,-82.9260,-1.0,30.87,2 
COMPS,ioos:station:USF.COMPS:C10:1,2011-08-06T19:40:00Z,27.1690,-82.9260,-1.0,30.88,2 
COMPS,ioos:station:USF.COMPS:C10:1,2011-08-06T20:00:00Z,27.1690,-82.9260,-1.0,30.88,2 
COMPS,ioos:station:USF.COMPS:C10:1,2011-08-06T20:20:00Z,27.1690,-82.9260,-1.0,30.89,2 
COMPS,ioos:station:USF.COMPS:C10:1,2011-08-06T20:40:00Z,27.1690,-82.9260,-1.0,30.89,2 
COMPS,ioos:station:USF.COMPS:C10:1,2011-08-06T21:00:00Z,27.1690,-82.9260,-1.0,30.9,2 
COMPS,ioos:station:USF.COMPS:C10:1,2011-08-06T21:20:00Z,27.1690,-82.9260,-1.0,30.9,2 
COMPS,ioos:station:USF.COMPS:C10:1,2011-08-06T21:40:00Z,27.1690,-82.9260,-1.0,30.9,2 
COMPS,ioos:station:USF.COMPS:C10:1,2011-08-06T22:00:00Z,27.1690,-82.9260,-1.0,30.91,2 
COMPS,ioos:station:USF.COMPS:C10:1,2011-08-06T22:20:00Z,27.1690,-82.9260,-1.0,30.91,2 
COMPS,ioos:station:USF.COMPS:C10:1,2011-08-06T22:40:00Z,27.1690,-82.9260,-1.0,30.91,2 
COMPS,ioos:station:USF.COMPS:C10:1,2011-08-06T23:00:00Z,27.1690,-82.9260,-1.0,30.93,2 
COMPS,ioos:station:USF.COMPS:C10:1,2011-08-06T23:20:00Z,27.1690,-82.9260,-1.0,30.94,2 
COMPS,ioos:station:USF.COMPS:C10:1,2011-08-06T23:40:00Z,27.1690,-82.9260,-1.0,30.97,2 
COMPS,ioos:station:USF.COMPS:C10:1,2011-08-07T00:00:00Z,27.1690,-82.9260,-1.0,30.96,2 
COMPS,ioos:station:USF.COMPS:C10:1,2011-08-07T00:20:00Z,27.1690,-82.9260,-1.0,30.93,2 
COMPS,ioos:station:USF.COMPS:C10:1,2011-08-07T00:40:00Z,27.1690,-82.9260,-1.0,30.9,2 
COMPS,ioos:station:USF.COMPS:C10:1,2011-08-07T01:00:00Z,27.1690,-82.9260,-1.0,31.03,2 
COMPS,ioos:station:USF.COMPS:C10:1,2011-08-07T01:20:00Z,27.1690,-82.9260,-1.0,31.07,2 
COMPS,ioos:station:USF.COMPS:C10:1,2011-08-07T01:40:00Z,27.1690,-82.9260,-1.0,31.13,2 
COMPS,ioos:station:USF.COMPS:C10:1,2011-08-07T02:00:00Z,27.1690,-82.9260,-1.0,31.09,2 
COMPS,ioos:station:USF.COMPS:C10:1,2011-08-07T02:20:00Z,27.1690,-82.9260,-1.0,31.08,2 
COMPS,ioos:station:USF.COMPS:C10:1,2011-08-07T02:40:00Z,27.1690,-82.9260,-1.0,31.07,2 
COMPS,ioos:station:USF.COMPS:C10:1,2011-08-07T03:00:00Z,27.1690,-82.9260,-1.0,31.09,2 
COMPS,ioos:station:USF.COMPS:C10:1,2011-08-07T03:20:00Z,27.1690,-82.9260,-1.0,31.06,2 
COMPS,ioos:station:USF.COMPS:C10:1,2011-08-07T03:40:00Z,27.1690,-82.9260,-1.0,31.08,2 
COMPS,ioos:station:USF.COMPS:C10:1,2011-08-07T04:00:00Z,27.1690,-82.9260,-1.0,31.07,2 
COMPS,ioos:station:USF.COMPS:C10:1,2011-08-07T04:20:00Z,27.1690,-82.9260,-1.0,31.06,2 
COMPS,ioos:station:USF.COMPS:C10:1,2011-08-07T04:40:00Z,27.1690,-82.9260,-1.0,31.03,2 
COMPS,ioos:station:USF.COMPS:C10:1,2011-08-07T05:00:00Z,27.1690,-82.9260,-1.0,31.01,2 
COMPS,ioos:station:USF.COMPS:C10:1,2011-08-07T05:20:00Z,27.1690,-82.9260,-1.0,31.01,2 
COMPS,ioos:station:USF.COMPS:C10:1,2011-08-07T05:40:00Z,27.1690,-82.9260,-1.0,30.98,2 
COMPS,ioos:station:USF.COMPS:C10:1,2011-08-07T06:00:00Z,27.1690,-82.9260,-1.0,30.99,2 
COMPS,ioos:station:USF.COMPS:C10:1,2011-08-07T06:20:00Z,27.1690,-82.9260,-1.0,30.98,2 
COMPS,ioos:station:USF.COMPS:C10:1,2011-08-07T06:40:00Z,27.1690,-82.9260,-1.0,30.97,2 
COMPS,ioos:station:USF.COMPS:C10:1,2011-08-07T07:00:00Z,27.1690,-82.9260,-1.0,30.95,2 
COMPS,ioos:station:USF.COMPS:C10:1,2011-08-07T07:20:00Z,27.1690,-82.9260,-1.0,30.94,2 
COMPS,ioos:station:USF.COMPS:C10:1,2011-08-07T07:40:00Z,27.1690,-82.9260,-1.0,30.94,2 
COMPS,ioos:station:USF.COMPS:C10:1,2011-08-07T08:00:00Z,27.1690,-82.9260,-1.0,30.94,2 
COMPS,ioos:station:USF.COMPS:C10:1,2011-08-07T08:20:00Z,27.1690,-82.9260,-1.0,30.93,2 
COMPS,ioos:station:USF.COMPS:C10:1,2011-08-07T08:40:00Z,27.1690,-82.9260,-1.0,30.93,2 
COMPS,ioos:station:USF.COMPS:C10:1,2011-08-07T09:00:00Z,27.1690,-82.9260,-1.0,30.92,2 
COMPS,ioos:station:USF.COMPS:C10:1,2011-08-07T09:20:00Z,27.1690,-82.9260,-1.0,30.92,2 
COMPS,ioos:station:USF.COMPS:C10:1,2011-08-07T09:40:00Z,27.1690,-82.9260,-1.0,30.91,2 
COMPS,ioos:station:USF.COMPS:C10:1,2011-08-07T10:00:00Z,27.1690,-82.9260,-1.0,30.9,2 
COMPS,ioos:station:USF.COMPS:C10:1,2011-08-07T10:20:00Z,27.1690,-82.9260,-1.0,30.89,2 
COMPS,ioos:station:USF.COMPS:C10:1,2011-08-07T10:40:00Z,27.1690,-82.9260,-1.0,30.88,2 
COMPS,ioos:station:USF.COMPS:C10:1,2011-08-07T11:00:00Z,27.1690,-82.9260,-1.0,30.88,2 
COMPS,ioos:station:USF.COMPS:C10:1,2011-08-07T11:20:00Z,27.1690,-82.9260,-1.0,30.87,2 
COMPS,ioos:station:USF.COMPS:C10:1,2011-08-07T11:40:00Z,27.1690,-82.9260,-1.0,30.86,2 
COMPS,ioos:station:USF.COMPS:C10:1,2011-08-07T12:00:00Z,27.1690,-82.9260,-1.0,30.86,2 
COMPS,ioos:station:USF.COMPS:C10:1,2011-08-07T12:20:00Z,27.1690,-82.9260,-1.0,30.85,2 
COMPS,ioos:station:USF.COMPS:C10:1,2011-08-07T12:40:00Z,27.1690,-82.9260,-1.0,30.85,2 
COMPS,ioos:station:USF.COMPS:C10:1,2011-08-07T13:00:00Z,27.1690,-82.9260,-1.0,30.85,2 
COMPS,ioos:station:USF.COMPS:C10:1,2011-08-07T13:20:00Z,27.1690,-82.9260,-1.0,30.86,2 
COMPS,ioos:station:USF.COMPS:C10:1,2011-08-07T13:40:00Z,27.1690,-82.9260,-1.0,30.86,2 
COMPS,ioos:station:USF.COMPS:C10:1,2011-08-07T14:00:00Z,27.1690,-82.9260,-1.0,30.87,2 
COMPS,ioos:station:USF.COMPS:C10:1,2011-08-07T14:20:00Z,27.1690,-82.9260,-1.0,30.88,2 
COMPS,ioos:station:USF.COMPS:C10:1,2011-08-07T14:40:00Z,27.1690,-82.9260,-1.0,30.89,2 
COMPS,ioos:station:USF.COMPS:C10:1,2011-08-07T15:00:00Z,27.1690,-82.9260,-1.0,30.89,2 
COMPS,ioos:station:USF.COMPS:C10:1,2011-08-07T15:20:00Z,27.1690,-82.9260,-1.0,30.91,2 
COMPS,ioos:station:USF.COMPS:C10:1,2011-08-07T15:40:00Z,27.1690,-82.9260,-1.0,30.92,2 
COMPS,ioos:station:USF.COMPS:C10:1,2011-08-07T16:00:00Z,27.1690,-82.9260,-1.0,30.94,2 
COMPS,ioos:station:USF.COMPS:C10:1,2011-08-07T16:20:00Z,27.1690,-82.9260,-1.0,30.94,2 
COMPS,ioos:station:USF.COMPS:C10:1,2011-08-07T16:40:00Z,27.1690,-82.9260,-1.0,30.97,2 
COMPS,ioos:station:USF.COMPS:C10:1,2011-08-07T17:00:00Z,27.1690,-82.9260,-1.0,30.97,2 
COMPS,ioos:station:USF.COMPS:C10:1,2011-08-07T17:20:00Z,27.1690,-82.9260,-1.0,30.97,2 
COMPS,ioos:station:USF.COMPS:C10:1,2011-08-07T17:40:00Z,27.1690,-82.9260,-1.0,30.99,2 
COMPS,ioos:station:USF.COMPS:C10:1,2011-08-07T18:00:00Z,27.1690,-82.9260,-1.0,30.98,2 
COMPS,ioos:station:USF.COMPS:C10:1,2011-08-07T18:20:00Z,27.1690,-82.9260,-1.0,30.98,2 
COMPS,ioos:station:USF.COMPS:C10:1,2011-08-07T18:40:00Z,27.1690,-82.9260,-1.0,31.02,2 
COMPS,ioos:station:USF.COMPS:C10:1,2011-08-07T19:00:00Z,27.1690,-82.9260,-1.0,31.02,2 
COMPS,ioos:station:USF.COMPS:C10:1,2011-08-07T19:20:00Z,27.1690,-82.9260,-1.0,31.08,2 
COMPS,ioos:station:USF.COMPS:C10:1,2011-08-07T19:40:00Z,27.1690,-82.9260,-1.0,31.07,2 
COMPS,ioos:station:USF.COMPS:C10:1,2011-08-07T20:00:00Z,27.1690,-82.9260,-1.0,31.09,2 
COMPS,ioos:station:USF.COMPS:C10:1,2011-08-07T20:20:00Z,27.1690,-82.9260,-1.0,31.09,2 
COMPS,ioos:station:USF.COMPS:C10:1,2011-08-07T20:40:00Z,27.1690,-82.9260,-1.0,31.09,2 
COMPS,ioos:station:USF.COMPS:C10:1,2011-08-07T21:00:00Z,27.1690,-82.9260,-1.0,31.09,2 
COMPS,ioos:station:USF.COMPS:C10:1,2011-08-07T21:20:00Z,27.1690,-82.9260,-1.0,31.08,2 
COMPS,ioos:station:USF.COMPS:C10:1,2011-08-07T21:40:00Z,27.1690,-82.9260,-1.0,31.09,2 
COMPS,ioos:station:USF.COMPS:C10:1,2011-08-07T22:00:00Z,27.1690,-82.9260,-1.0,31.1,2 
COMPS,ioos:station:USF.COMPS:C10:1,2011-08-07T22:20:00Z,27.1690,-82.9260,-1.0,31.1,2 
COMPS,ioos:station:USF.COMPS:C10:1,2011-08-07T22:40:00Z,27.1690,-82.9260,-1.0,31.08,2 
COMPS,ioos:station:USF.COMPS:C10:1,2011-08-07T23:00:00Z,27.1690,-82.9260,-1.0,31.08,2 
COMPS,ioos:station:USF.COMPS:C10:1,2011-08-07T23:20:00Z,27.1690,-82.9260,-1.0,31.07,2 
COMPS,ioos:station:USF.COMPS:C10:1,2011-08-07T23:40:00Z,27.1690,-82.9260,-1.0,31.06,2 
COMPS,ioos:station:USF.COMPS:C10:1,2011-08-08T00:00:00Z,27.1690,-82.9260,-1.0,31.0,2 
COMPS,ioos:station:USF.COMPS:C10:1,2011-08-08T00:20:00Z,27.1690,-82.9260,-1.0,31.05,2 
COMPS,ioos:station:USF.COMPS:C10:1,2011-08-08T00:40:00Z,27.1690,-82.9260,-1.0,31.04,2 
COMPS,ioos:station:USF.COMPS:C10:1,2011-08-08T01:00:00Z,27.1690,-82.9260,-1.0,31.0,2 
COMPS,ioos:station:USF.COMPS:C10:1,2011-08-08T01:20:00Z,27.1690,-82.9260,-1.0,31.02,2 
COMPS,ioos:station:USF.COMPS:C10:1,2011-08-08T01:40:00Z,27.1690,-82.9260,-1.0,31.01,2 
COMPS,ioos:station:USF.COMPS:C10:1,2011-08-08T02:00:00Z,27.1690,-82.9260,-1.0,31.0,2 
COMPS,ioos:station:USF.COMPS:C10:1,2011-08-08T02:20:00Z,27.1690,-82.9260,-1.0,31.0,2 
COMPS,ioos:station:USF.COMPS:C10:1,2011-08-08T02:40:00Z,27.1690,-82.9260,-1.0,30.99,2 
COMPS,ioos:station:USF.COMPS:C10:1,2011-08-08T03:00:00Z,27.1690,-82.9260,-1.0,31.0,2 
COMPS,ioos:station:USF.COMPS:C10:1,2011-08-08T03:20:00Z,27.1690,-82.9260,-1.0,30.97,2 
COMPS,ioos:station:USF.COMPS:C10:1,2011-08-08T03:40:00Z,27.1690,-82.9260,-1.0,30.97,2 
COMPS,ioos:station:USF.COMPS:C10:1,2011-08-08T04:00:00Z,27.1690,-82.9260,-1.0,31.0,2 
COMPS,ioos:station:USF.COMPS:C10:1,2011-08-08T04:20:00Z,27.1690,-82.9260,-1.0,30.95,2 
COMPS,ioos:station:USF.COMPS:C10:1,2011-08-08T04:40:00Z,27.1690,-82.9260,-1.0,30.94,2 
COMPS,ioos:station:USF.COMPS:C10:1,2011-08-08T05:00:00Z,27.1690,-82.9260,-1.0,30.9,2 
COMPS,ioos:station:USF.COMPS:C10:1,2011-08-08T05:20:00Z,27.1690,-82.9260,-1.0,30.92,2 
COMPS,ioos:station:USF.COMPS:C10:1,2011-08-08T05:40:00Z,27.1690,-82.9260,-1.0,30.92,2 
COMPS,ioos:station:USF.COMPS:C10:1,2011-08-08T06:00:00Z,27.1690,-82.9260,-1.0,30.9,2 
COMPS,ioos:station:USF.COMPS:C10:1,2011-08-08T06:20:00Z,27.1690,-82.9260,-1.0,30.91,2 
COMPS,ioos:station:USF.COMPS:C10:1,2011-08-08T06:40:00Z,27.1690,-82.9260,-1.0,30.9,2 
COMPS,ioos:station:USF.COMPS:C10:1,2011-08-08T07:00:00Z,27.1690,-82.9260,-1.0,30.9,2 
COMPS,ioos:station:USF.COMPS:C10:1,2011-08-08T07:20:00Z,27.1690,-82.9260,-1.0,30.89,2 
COMPS,ioos:station:USF.COMPS:C10:1,2011-08-08T07:40:00Z,27.1690,-82.9260,-1.0,30.89,2 
COMPS,ioos:station:USF.COMPS:C10:1,2011-08-08T08:00:00Z,27.1690,-82.9260,-1.0,30.87,2 
COMPS,ioos:station:USF.COMPS:C10:1,2011-08-08T08:20:00Z,27.1690,-82.9260,-1.0,30.88,2 
COMPS,ioos:station:USF.COMPS:C10:1,2011-08-08T08:40:00Z,27.1690,-82.9260,-1.0,30.86,2 
COMPS,ioos:station:USF.COMPS:C10:1,2011-08-08T09:00:00Z,27.1690,-82.9260,-1.0,30.9,2 
COMPS,ioos:station:USF.COMPS:C10:1,2011-08-08T09:20:00Z,27.1690,-82.9260,-1.0,30.85,2 
COMPS,ioos:station:USF.COMPS:C10:1,2011-08-08T09:40:00Z,27.1690,-82.9260,-1.0,30.85,2 
COMPS,ioos:station:USF.COMPS:C10:1,2011-08-08T10:00:00Z,27.1690,-82.9260,-1.0,30.8,2 
COMPS,ioos:station:USF.COMPS:C10:1,2011-08-08T10:20:00Z,27.1690,-82.9260,-1.0,30.84,2 
COMPS,ioos:station:USF.COMPS:C10:1,2011-08-08T10:40:00Z,27.1690,-82.9260,-1.0,30.84,2 
COMPS,ioos:station:USF.COMPS:C10:1,2011-08-08T11:00:00Z,27.1690,-82.9260,-1.0,30.8,2 
COMPS,ioos:station:USF.COMPS:C10:1,2011-08-08T11:20:00Z,27.1690,-82.9260,-1.0,30.8,2 
COMPS,ioos:station:USF.COMPS:C10:1,2011-08-08T11:40:00Z,27.1690,-82.9260,-1.0,30.82,2 
COMPS,ioos:station:USF.COMPS:C10:1,2011-08-08T12:00:00Z,27.1690,-82.9260,-1.0,30.8,2 
COMPS,ioos:station:USF.COMPS:C10:1,2011-08-08T12:20:00Z,27.1690,-82.9260,-1.0,30.83,2 
COMPS,ioos:station:USF.COMPS:C10:1,2011-08-08T12:40:00Z,27.1690,-82.9260,-1.0,30.83,2 
COMPS,ioos:station:USF.COMPS:C10:1,2011-08-08T13:00:00Z,27.1690,-82.9260,-1.0,30.8,2 
COMPS,ioos:station:USF.COMPS:C10:1,2011-08-08T13:20:00Z,27.1690,-82.9260,-1.0,30.82,2 
COMPS,ioos:station:USF.COMPS:C10:1,2011-08-08T13:40:00Z,27.1690,-82.9260,-1.0,30.82,2 
COMPS,ioos:station:USF.COMPS:C10:1,2011-08-08T14:00:00Z,27.1690,-82.9260,-1.0,30.8,2 
COMPS,ioos:station:USF.COMPS:C10:1,2011-08-08T14:20:00Z,27.1690,-82.9260,-1.0,30.84,2 
COMPS,ioos:station:USF.COMPS:C10:1,2011-08-08T14:40:00Z,27.1690,-82.9260,-1.0,30.85,2 
COMPS,ioos:station:USF.COMPS:C10:1,2011-08-08T15:00:00Z,27.1690,-82.9260,-1.0,30.9,2 
COMPS,ioos:station:USF.COMPS:C10:1,2011-08-08T15:20:00Z,27.1690,-82.9260,-1.0,30.87,2 
COMPS,ioos:station:USF.COMPS:C10:1,2011-08-08T15:40:00Z,27.1690,-82.9260,-1.0,30.87,2 
COMPS,ioos:station:USF.COMPS:C10:1,2011-08-08T16:00:00Z,27.1690,-82.9260,-1.0,30.9,2 
COMPS,ioos:station:USF.COMPS:C10:1,2011-08-08T16:20:00Z,27.1690,-82.9260,-1.0,30.88,2 
COMPS,ioos:station:USF.COMPS:C10:1,2011-08-08T16:40:00Z,27.1690,-82.9260,-1.0,30.89,2 
COMPS,ioos:station:USF.COMPS:C10:1,2011-08-08T17:00:00Z,27.1690,-82.9260,-1.0,30.9,2 
COMPS,ioos:station:USF.COMPS:C10:1,2011-08-08T17:20:00Z,27.1690,-82.9260,-1.0,30.95,2 
COMPS,ioos:station:USF.COMPS:C10:1,2011-08-08T17:40:00Z,27.1690,-82.9260,-1.0,30.95,2 
COMPS,ioos:station:USF.COMPS:C10:1,2011-08-08T18:00:00Z,27.1690,-82.9260,-1.0,31.0,2 
COMPS,ioos:station:USF.COMPS:C10:1,2011-08-08T18:20:00Z,27.1690,-82.9260,-1.0,30.98,2 
COMPS,ioos:station:USF.COMPS:C10:1,2011-08-08T18:40:00Z,27.1690,-82.9260,-1.0,31.01,2 
COMPS,ioos:station:USF.COMPS:C10:1,2011-08-08T19:00:00Z,27.1690,-82.9260,-1.0,31.02,2 
COMPS,ioos:station:USF.COMPS:C10:1,2011-08-08T19:20:00Z,27.1690,-82.9260,-1.0,31.01,2 
COMPS,ioos:station:USF.COMPS:C10:1,2011-08-08T19:40:00Z,27.1690,-82.9260,-1.0,31.02,2 
COMPS,ioos:station:USF.COMPS:C10:1,2011-08-08T20:00:00Z,27.1690,-82.9260,-1.0,31.02,2 
COMPS,ioos:station:USF.COMPS:C10:1,2011-08-08T20:20:00Z,27.1690,-82.9260,-1.0,31.03,2 
COMPS,ioos:station:USF.COMPS:C10:1,2011-08-08T20:40:00Z,27.1690,-82.9260,-1.0,31.05,2 
COMPS,ioos:station:USF.COMPS:C10:1,2011-08-08T21:00:00Z,27.1690,-82.9260,-1.0,31.0,2 
COMPS,ioos:station:USF.COMPS:C10:1,2011-08-08T21:20:00Z,27.1690,-82.9260,-1.0,31.02,2 
COMPS,ioos:station:USF.COMPS:C10:1,2011-08-08T21:40:00Z,27.1690,-82.9260,-1.0,31.01,2 
COMPS,ioos:station:USF.COMPS:C10:1,2011-08-08T22:00:00Z,27.1690,-82.9260,-1.0,30.99,2 
COMPS,ioos:station:USF.COMPS:C10:1,2011-08-08T22:20:00Z,27.1690,-82.9260,-1.0,30.97,2 
COMPS,ioos:station:USF.COMPS:C10:1,2011-08-08T22:40:00Z,27.1690,-82.9260,-1.0,30.96,2 
COMPS,ioos:station:USF.COMPS:C10:1,2011-08-08T23:00:00Z,27.1690,-82.9260,-1.0,30.9,2 
COMPS,ioos:station:USF.COMPS:C10:1,2011-08-08T23:20:00Z,27.1690,-82.9260,-1.0,30.95,2 
COMPS,ioos:station:USF.COMPS:C10:1,2011-08-08T23:40:00Z,27.1690,-82.9260,-1.0,30.95,2 
COMPS,ioos:station:USF.COMPS:C10:1,2011-08-09T00:00:00Z,27.1690,-82.9260,-1.0,30.94,2 
COMPS,ioos:station:USF.COMPS:C10:1,2011-08-09T00:20:00Z,27.1690,-82.9260,-1.0,30.93,2 
COMPS,ioos:station:USF.COMPS:C10:1,2011-08-09T00:40:00Z,27.1690,-82.9260,-1.0,30.92,2 
COMPS,ioos:station:USF.COMPS:C10:1,2011-08-09T01:00:00Z,27.1690,-82.9260,-1.0,30.9,2 
COMPS,ioos:station:USF.COMPS:C10:1,2011-08-09T01:20:00Z,27.1690,-82.9260,-1.0,30.91,2 
COMPS,ioos:station:USF.COMPS:C10:1,2011-08-09T01:40:00Z,27.1690,-82.9260,-1.0,30.91,2 
COMPS,ioos:station:USF.COMPS:C10:1,2011-08-09T02:00:00Z,27.1690,-82.9260,-1.0,30.9,2 
COMPS,ioos:station:USF.COMPS:C10:1,2011-08-09T02:20:00Z,27.1690,-82.9260,-1.0,30.91,2 
COMPS,ioos:station:USF.COMPS:C10:1,2011-08-09T02:40:00Z,27.1690,-82.9260,-1.0,30.9,2 
COMPS,ioos:station:USF.COMPS:C10:1,2011-08-09T03:00:00Z,27.1690,-82.9260,-1.0,30.91,2 
COMPS,ioos:station:USF.COMPS:C10:1,2011-08-09T03:20:00Z,27.1690,-82.9260,-1.0,30.89,2 
COMPS,ioos:station:USF.COMPS:C10:1,2011-08-09T03:40:00Z,27.1690,-82.9260,-1.0,30.89,2 
COMPS,ioos:station:USF.COMPS:C10:1,2011-08-09T04:00:00Z,27.1690,-82.9260,-1.0,30.9,2 
COMPS,ioos:station:USF.COMPS:C10:1,2011-08-09T04:20:00Z,27.1690,-82.9260,-1.0,30.87,2 
COMPS,ioos:station:USF.COMPS:C10:1,2011-08-09T04:40:00Z,27.1690,-82.9260,-1.0,30.87,2 
COMPS,ioos:station:USF.COMPS:C10:1,2011-08-09T05:00:00Z,27.1690,-82.9260,-1.0,30.9,2 
COMPS,ioos:station:USF.COMPS:C10:1,2011-08-09T05:20:00Z,27.1690,-82.9260,-1.0,30.86,2 
COMPS,ioos:station:USF.COMPS:C10:1,2011-08-09T05:40:00Z,27.1690,-82.9260,-1.0,30.85,2 
COMPS,ioos:station:USF.COMPS:C10:1,2011-08-09T06:00:00Z,27.1690,-82.9260,-1.0,30.8,2 
COMPS,ioos:station:USF.COMPS:C10:1,2011-08-09T06:20:00Z,27.1690,-82.9260,-1.0,30.84,2 
COMPS,ioos:station:USF.COMPS:C10:1,2011-08-09T06:40:00Z,27.1690,-82.9260,-1.0,30.83,2 
COMPS,ioos:station:USF.COMPS:C10:1,2011-08-09T07:00:00Z,27.1690,-82.9260,-1.0,30.8,2 
COMPS,ioos:station:USF.COMPS:C10:1,2011-08-09T07:20:00Z,27.1690,-82.9260,-1.0,30.83,2 
COMPS,ioos:station:USF.COMPS:C10:1,2011-08-09T07:40:00Z,27.1690,-82.9260,-1.0,30.82,2 
COMPS,ioos:station:USF.COMPS:C10:1,2011-08-09T08:00:00Z,27.1690,-82.9260,-1.0,30.8,2 
COMPS,ioos:station:USF.COMPS:C10:1,2011-08-09T08:20:00Z,27.1690,-82.9260,-1.0,30.82,2 
COMPS,ioos:station:USF.COMPS:C10:1,2011-08-09T08:40:00Z,27.1690,-82.9260,-1.0,30.8,2 
COMPS,ioos:station:USF.COMPS:C10:1,2011-08-09T09:00:00Z,27.1690,-82.9260,-1.0,30.8,2 
COMPS,ioos:station:USF.COMPS:C10:1,2011-08-09T09:20:00Z,27.1690,-82.9260,-1.0,30.8,2 
COMPS,ioos:station:USF.COMPS:C10:1,2011-08-09T09:40:00Z,27.1690,-82.9260,-1.0,30.8,2 
COMPS,ioos:station:USF.COMPS:C10:1,2011-08-09T10:00:00Z,27.1690,-82.9260,-1.0,30.8,2 
COMPS,ioos:station:USF.COMPS:C10:1,2011-08-09T10:20:00Z,27.1690,-82.9260,-1.0,30.79,2 
COMPS,ioos:station:USF.COMPS:C10:1,2011-08-09T10:40:00Z,27.1690,-82.9260,-1.0,30.78,2 
COMPS,ioos:station:USF.COMPS:C10:1,2011-08-09T11:00:00Z,27.1690,-82.9260,-1.0,30.8,2 
COMPS,ioos:station:USF.COMPS:C10:1,2011-08-09T11:20:00Z,27.1690,-82.9260,-1.0,30.77,2 
COMPS,ioos:station:USF.COMPS:C10:1,2011-08-09T11:40:00Z,27.1690,-82.9260,-1.0,30.75,2 
COMPS,ioos:station:USF.COMPS:C10:1,2011-08-09T12:00:00Z,27.1690,-82.9260,-1.0,30.74,2 
COMPS,ioos:station:USF.COMPS:C10:1,2011-08-09T12:20:00Z,27.1690,-82.9260,-1.0,30.74,2 
COMPS,ioos:station:USF.COMPS:C10:1,2011-08-09T12:40:00Z,27.1690,-82.9260,-1.0,30.74,2 
COMPS,ioos:station:USF.COMPS:C10:1,2011-08-09T13:00:00Z,27.1690,-82.9260,-1.0,30.7,2 
COMPS,ioos:station:USF.COMPS:C10:1,2011-08-09T13:20:00Z,27.1690,-82.9260,-1.0,30.73,2 
COMPS,ioos:station:USF.COMPS:C10:1,2011-08-09T13:40:00Z,27.1690,-82.9260,-1.0,30.72,2 
COMPS,ioos:station:USF.COMPS:C10:1,2011-08-09T14:00:00Z,27.1690,-82.9260,-1.0,30.7,2 
COMPS,ioos:station:USF.COMPS:C10:1,2011-08-09T14:20:00Z,27.1690,-82.9260,-1.0,30.7,2 